RH
77 77 76 79 81 82 82 83 84 83 81 80 77 75 78 80 76 65 41 40 42 62 55 33 38 30 33 37 39 39 51 52 37 33 34 31 33 32 28 33 33 30 38 43 50
79 79 80 80 81 83 84 84 84 83 82 79 77 76 79 78 58 44 42 62 62 59 31 34 33 32 36 35 41 46 59 40 30 30 31 31 30 30 33 34 32 41 52 53 53
80 80 81 81 82 83 85 85 85 84 81 79 80 80 79 76 55 37 54 67 64 57 41 30 29 28 38 38 37 42 47 34 28 33 34 34 32 28 30 34 31 32 53 58 57
79 81 81 82 82 84 85 86 85 84 82 81 82 79 79 60 42 34 66 65 65 43 41 30 30 33 37 37 32 38 32 30 32 32 33 36 32 29 31 30 26 26 45 56 60
80 80 82 83 82 84 86 88 86 83 84 83 80 77 58 52 39 46 66 67 52 48 37 33 33 34 39 35 33 33 28 24 26 31 31 32 32 34 32 29 28 27 44 56 58
81 83 82 82 83 84 87 88 88 85 87 84 79 78 50 41 26 44 38 42 36 38 33 32 29 28 28 28 31 30 30 27 27 27 30 32 36 36 32 29 27 26 44 50 54
80 81 83 85 85 86 88 86 86 87 87 81 78 51 44 34 22 28 31 32 32 33 35 28 32 30 33 32 29 30 30 30 30 30 31 33 35 37 27 31 28 29 30 48 52
79 79 81 83 87 89 90 87 87 88 86 82 75 54 35 28 27 21 23 26 24 26 31 33 31 37 36 32 29 33 38 39 29 35 37 28 37 27 27 31 35 32 32 37 50
77 77 79 82 87 91 91 85 83 87 82 78 59 50 34 32 24 21 23 26 25 27 30 19 36 38 40 39 41 42 40 39 32 34 41 35 34 29 28 30 31 33 37 38 45
74 75 77 81 87 92 90 76 84 84 71 45 32 42 32 28 27 23 24 27 31 33 38 39 42 46 48 44 37 40 41 36 35 33 44 47 42 33 32 33 29 30 34 40 44
73 79 81 82 85 91 76 67 56 58 44 37 32 34 30 31 27 30 26 30 33 42 46 44 48 52 44 41 32 34 36 36 32 29 37 41 39 34 35 36 38 36 33 36 42
74 80 81 81 82 90 84 55 63 58 60 47 36 28 29 29 34 34 26 33 37 47 46 51 55 39 37 38 37 37 39 42 34 31 36 37 39 36 33 33 29 28 36 41 39
75 80 82 80 86 66 58 61 55 61 81 53 42 40 30 28 35 40 30 34 39 46 47 52 45 40 43 45 43 40 44 43 38 36 38 41 42 39 32 34 29 31 35 42 46
75 76 78 81 69 67 66 60 58 64 64 44 44 41 34 37 42 34 32 35 40 44 46 48 35 36 39 41 37 48 37 38 41 46 56 44 58 40 31 27 27 27 41 48 54
74 76 77 80 91 70 68 63 65 75 50 40 44 37 40 42 44 44 38 38 47 43 45 50 43 44 46 39 35 37 36 38 45 51 64 62 59 43 38 29 26 28 42 55 55
75 76 78 83 88 76 69 73 81 62 54 55 49 50 47 45 46 45 43 38 42 46 43 46 42 40 40 41 40 39 43 47 56 61 73 48 50 50 34 29 35 50 59 60 59
78 80 83 67 87 74 79 87 55 48 25 48 56 51 50 49 46 46 49 51 52 61 62 49 43 40 36 45 46 46 54 71 74 90 73 50 59 38 33 49 47 50 64 72 71
81 82 76 69 79 78 87 67 63 39 40 44 45 44 53 43 46 53 56 60 52 51 62 65 55 49 41 38 50 56 51 72 70 77 64 56 60 63 60 59 60 65 67 74 81
79 72 86 73 72 84 79 80 69 62 58 57 46 36 44 42 53 50 56 57 51 47 56 58 56 48 44 40 38 54 62 45 57 65 72 64 49 48 59 63 69 77 77 86 84
94 88 76 66 75 90 78 73 75 72 69 59 64 64 77 68 67 66 54 88 84 66 67 55 64 44 46 43 49 51 47 62 68 72 72 59 64 72 80 77 78 84 93 91 89
78 85 66 60 82 85 91 86 72 66 67 79 86 85 87 96 96 78 62 80 81 82 74 92 69 55 51 56 54 58 57 56 58 63 57 54 72 69 78 77 83 84 84 90 88
83 79 61 68 76 91 91 74 66 73 71 81 84 87 93 75 90 73 88 88 65 76 97 95 98 91 56 44 45 46 44 44 53 58 68 50 69 70 67 70 76 83 81 81 81
79 72 51 50 85 67 39 35 72 69 87 81 86 89 86 90 86 84 84 68 67 53 94 94 91 96 89 63 72 84 84 83 80 87 86 75 83 70 71 67 70 80 84 86 79
70 56 53 54 44 43 42 36 44 54 57 43 76 87 71 74 80 82 46 50 51 44 47 87 98 97 95 92 91 96 92 90 96 98 95 95 93 89 88 86 80 80 87 93 93
71 77 67 58 51 44 39 54 55 62 50 44 45 63 66 63 57 50 52 60 49 35 64 81 99 77 67 54 46 92 89 82 92 95 96 96 94 95 94 93 94 92 90 89 92
82 78 82 62 45 46 60 58 58 55 54 55 61 53 51 66 59 75 73 68 58 39 38 42 84 54 58 35 42 86 87 84 84 90 93 94 95 94 91 90 91 94 92 94 94
83 78 77 63 51 59 60 60 60 58 52 50 53 56 56 51 54 51 51 52 54 61 61 58 78 86 83 48 64 87 94 80 80 83 87 88 94 90 85 88 94 94 94 94 94
Wind_Speed
11 9 8 7 7 7 7 8 8 8 7 7 6 6 6 6 8 3 5 9 8 12 6 4 2 4 1 2 1 2 3 3 5 2 0 2 3 3 4 2 2 3 5 4 16
14 12 10 9 8 7 7 7 8 7 6 6 5 5 5 5 2 7 8 9 13 11 5 8 5 4 0 4 1 4 4 7 4 1 0 1 3 6 2 3 3 4 6 12 15
16 14 12 10 9 8 7 7 7 7 5 5 5 5 4 4 3 7 14 13 12 8 2 3 3 5 4 3 5 5 6 4 4 3 2 2 4 4 6 6 8 9 13 14 11
17 16 14 11 9 9 8 7 7 6 6 5 5 4 3 1 3 2 10 11 10 6 1 2 3 7 4 6 7 4 9 8 5 3 3 3 3 5 7 10 5 9 18 14 15
18 17 16 13 10 8 9 7 6 6 6 5 5 3 1 1 9 5 9 9 6 5 4 3 3 5 4 4 3 6 5 7 7 6 6 3 8 7 9 10 10 6 16 17 14
19 18 17 15 12 9 8 7 6 6 5 5 5 2 1 3 2 9 8 6 5 5 5 5 5 5 5 5 3 3 3 7 7 7 5 6 4 3 9 9 12 8 10 15 17
20 19 18 16 14 11 9 7 6 6 5 5 4 3 2 11 8 8 8 5 4 4 3 5 1 3 3 5 4 3 6 8 9 6 5 6 7 11 17 3 8 10 10 11 16
22 21 20 18 15 12 10 8 6 5 6 6 4 2 7 2 1 9 5 3 4 4 2 1 4 1 2 3 7 3 0 3 6 9 4 6 11 9 9 10 12 9 8 11 13
23 23 22 21 18 13 9 8 5 6 5 5 3 3 8 3 4 6 6 5 4 3 2 2 4 5 0 2 4 3 5 6 8 5 6 5 8 7 1 8 9 9 10 10 10
24 25 24 22 19 13 8 2 5 5 3 3 4 2 4 5 4 6 6 7 3 4 2 2 1 2 1 4 7 6 5 6 5 5 2 5 15 12 11 5 10 10 10 11 11
25 25 24 22 21 13 3 2 3 1 4 10 7 5 6 2 4 3 4 4 4 2 5 4 4 11 12 12 7 4 4 8 6 6 7 10 16 15 9 8 11 15 14 12 14
26 25 25 23 24 14 2 4 2 2 8 10 11 6 4 6 3 4 6 6 5 7 3 0 10 11 8 7 9 10 11 10 8 4 8 8 12 11 9 9 14 19 13 14 9
26 25 25 25 22 4 4 3 1 1 2 6 2 3 5 6 5 9 11 5 5 5 7 8 8 4 8 10 9 11 7 6 9 4 3 5 10 8 10 5 11 14 11 9 13
26 26 24 27 3 4 3 1 2 2 4 4 0 1 3 3 3 3 9 5 4 10 7 9 15 16 13 6 8 8 7 9 6 3 5 6 8 5 9 14 10 11 7 6 4
26 25 24 15 3 3 2 3 2 3 5 1 3 2 2 5 2 2 2 3 3 3 2 10 3 5 8 15 9 10 6 5 2 4 2 1 4 7 3 7 14 7 6 6 4
27 24 18 2 1 2 4 4 3 6 7 2 3 3 2 2 1 2 1 3 2 4 7 10 3 4 7 1 3 4 3 3 4 3 4 9 8 2 5 7 3 5 6 7 8
28 23 9 4 1 5 3 3 6 5 4 3 2 3 3 4 5 6 5 5 5 1 5 5 11 8 5 3 1 3 6 3 3 1 10 4 5 10 8 27 21 9 10 11 11
28 16 3 2 4 4 2 5 3 2 6 7 6 5 4 1 6 5 4 2 7 5 3 4 11 10 6 14 9 7 10 8 7 6 5 2 7 4 11 21 24 22 20 10 15
18 3 2 5 4 3 5 4 3 5 6 7 7 4 6 7 7 6 6 4 2 7 5 4 7 0 3 5 8 3 6 7 3 2 1 6 6 7 27 29 30 28 20 15 16
2 3 3 6 3 4 5 2 5 6 7 5 4 5 5 8 8 8 6 3 12 11 11 8 12 11 3 3 1 6 3 2 2 5 6 6 2 6 23 24 23 27 24 19 19
3 4 5 8 4 5 4 3 5 10 11 9 6 5 5 7 5 7 5 5 11 14 9 12 5 5 3 5 9 1 4 5 4 6 8 6 3 9 13 15 18 20 22 22 21
2 5 6 4 6 4 4 4 6 6 9 7 5 6 3 8 5 7 5 3 11 9 8 8 6 8 11 4 6 5 6 6 10 10 5 11 5 8 11 12 15 16 18 18 19
3 1 6 6 5 4 5 6 6 6 7 6 5 5 4 3 4 3 6 5 6 12 4 7 4 8 8 3 6 8 9 9 9 4 11 10 5 8 10 14 14 16 16 16 17
4 4 6 7 2 4 3 3 5 10 4 5 2 4 2 3 4 5 6 6 12 10 7 6 5 7 8 10 9 7 8 9 3 4 7 6 9 11 11 11 14 16 15 12 14
5 3 0 4 5 5 3 5 5 6 7 7 3 8 6 5 6 5 4 5 3 6 4 2 5 8 11 12 10 8 8 12 5 6 2 4 6 6 10 6 7 8 12 14 15
5 4 5 3 5 5 8 6 6 5 3 4 5 9 5 5 9 10 6 3 5 5 4 5 6 9 16 13 6 14 13 9 10 8 6 5 4 12 9 5 9 9 11 11 11
4 4 3 6 5 5 3 4 6 5 6 4 7 7 7 11 6 12 12 15 16 11 13 6 3 2 7 3 8 4 12 9 9 11 5 6 5 12 13 13 7 10 10 10 10
Wind_Direction
10 355 337 319 301 290 284 281 283 281 286 294 304 307 306 320 300 186 232 225 182 176 158 153 212 244 61 254 162 63 53 251 255 5 237 294 116 354 155 134 1 148 142 169 140
12 4 354 336 315 308 290 285 278 276 277 287 294 291 309 332 262 237 233 158 146 157 143 154 182 192 138 196 219 117 153 229 230 191 193 191 177 179 165 216 236 80 46 125 142
9 3 358 343 327 315 298 285 277 273 269 265 268 277 304 329 337 247 183 157 158 164 170 184 188 166 201 152 201 197 209 222 296 159 89 330 310 223 184 230 210 196 173 161 163
5 2 355 347 332 314 303 283 277 275 271 258 267 284 318 166 270 201 145 152 151 151 296 217 194 167 212 215 204 210 229 239 276 196 152 212 296 278 206 218 183 180 176 168 174
3 0 355 348 339 321 299 283 271 269 265 269 277 305 184 196 250 171 151 147 133 143 200 206 192 177 226 225 228 222 248 256 256 202 216 200 248 241 260 244 245 223 160 185 187
360 356 354 350 343 326 305 283 262 246 252 263 271 260 161 249 156 151 150 154 167 165 195 199 203 197 263 252 190 257 237 270 271 239 233 199 252 160 253 244 238 221 187 188 191
357 354 352 346 340 325 306 291 259 238 229 247 247 238 226 235 158 160 159 192 182 177 179 231 196 173 351 295 305 311 316 311 250 219 220 152 285 232 245 217 220 222 201 197 200
353 352 349 347 340 332 314 294 257 227 222 227 226 229 245 270 167 147 186 132 156 208 131 49 84 70 188 296 335 261 241 299 282 139 192 118 268 263 258 193 226 230 215 203 206
351 350 347 346 343 335 318 292 230 208 207 202 181 174 268 324 148 193 154 165 148 96 75 90 90 195 90 132 344 275 242 220 307 177 131 165 262 253 97 173 233 235 229 220 216
350 347 345 343 340 337 330 334 149 142 222 211 268 8 262 222 173 171 195 143 152 128 80 147 128 176 122 118 225 216 228 246 241 212 130 190 260 268 274 300 256 243 233 223 212
349 344 342 339 336 336 23 87 33 298 220 194 194 217 137 85 46 95 119 123 104 156 181 214 148 214 196 204 222 267 263 257 258 227 166 227 243 257 256 263 253 252 238 230 219
347 343 338 336 332 322 194 79 108 196 300 252 246 261 136 166 112 199 120 164 178 206 195 192 238 233 204 216 232 257 259 264 282 246 181 258 259 258 251 234 241 256 246 226 229
346 342 336 333 325 351 72 80 8 44 264 298 231 195 172 140 213 202 153 186 198 204 205 195 223 183 197 238 252 247 221 248 250 287 249 308 277 248 265 259 264 254 248 222 216
343 340 336 331 15 330 59 20 346 69 32 264 42 358 93 107 264 210 181 185 234 213 213 238 241 239 253 228 197 256 214 239 257 247 246 144 284 247 261 264 274 270 212 196 149
338 336 332 327 286 38 335 347 360 56 16 111 117 314 92 148 134 10 9 28 229 256 179 245 244 201 228 240 180 243 200 213 222 245 358 244 323 274 223 282 264 282 197 168 102
332 329 331 107 254 317 332 346 58 52 259 91 114 147 114 222 216 111 94 37 270 259 255 248 260 229 214 86 180 137 101 38 48 84 272 209 174 284 225 248 338 0 83 96 73
328 324 313 286 323 321 348 57 50 145 313 51 75 160 221 201 213 174 169 175 195 222 256 297 242 226 163 190 27 162 89 304 313 44 240 227 169 259 331 6 9 2 40 37 42
331 329 168 81 326 355 61 57 170 271 10 355 357 279 218 268 244 182 148 254 244 223 276 237 296 170 199 201 186 192 165 174 209 201 251 114 223 106 14 21 14 14 6 25 36
334 339 41 312 326 37 76 78 30 26 320 337 338 6 343 21 7 349 213 269 286 208 212 260 261 27 151 159 146 195 184 208 310 194 4 217 264 188 14 12 8 0 7 28 35
12 0 326 300 22 57 75 90 107 18 324 330 74 53 358 335 7 24 313 347 334 9 340 312 284 248 195 107 11 155 196 128 208 205 216 256 157 324 5 358 2 11 22 27 29
48 62 265 325 68 47 90 55 60 39 18 24 20 352 7 11 341 330 301 76 13 346 11 5 312 287 100 195 179 144 248 234 194 175 220 239 174 24 9 4 4 15 15 16 23
21 48 294 9 52 41 48 358 346 17 26 28 86 38 20 7 314 306 313 14 31 30 1 10 296 279 235 249 204 203 254 247 236 241 248 240 162 34 21 20 14 20 18 21 22
53 317 327 54 75 18 341 344 62 28 29 28 26 57 16 22 301 322 343 4 36 358 13 351 340 310 296 302 25 34 39 1 319 288 242 253 141 37 23 19 22 20 19 20 24
64 41 343 35 56 95 33 4 25 34 73 342 281 79 336 243 237 299 304 309 347 316 290 179 219 271 291 309 303 305 22 358 316 268 342 21 129 22 21 27 13 16 18 16 14
26 39 124 5 355 12 29 28 51 20 15 1 37 61 29 303 308 239 303 314 283 287 11 339 286 262 277 290 309 54 15 35 79 344 167 60 101 29 348 22 34 21 17 12 10
73 27 347 336 2 23 19 2 35 9 321 338 31 340 324 268 276 301 327 249 234 293 29 351 281 320 296 283 286 80 36 75 49 358 34 63 83 9 337 347 32 28 16 9 2
346 347 88 329 21 51 30 37 13 16 298 9 338 316 303 295 287 277 257 255 249 276 284 269 225 56 264 333 161 68 12 72 86 35 358 37 347 337 340 354 31 24 15 2 355